Location: Haliburton Scout Reserve
(45.0900°N, 78.3200°W)
Time: 03:00:38
(UTC-04:00)

PCSat - Pass Details

Date: 29 May 2022
Orbit: 784 x 795 km, 67.1° (Epoch: 24 June)

Event Time Altitude Azimuth Distance (km) Brightness Sun altitude
Rises 00:12:41 0° 334° (NNW) 3,305 14.2 -22.0°
Reaches altitude 10° 00:16:01 10° 355° (N) 2,373 13.2 -22.1°
Maximum altitude 00:19:29 17° 35° (NE) 1,932 12.1 -22.3°
Drops below altitude 10° 00:22:57 10° 75° (ENE) 2,366 12.1 -22.4°
Enters shadow 00:26:04 - 94° (E) 3,231 12.6 -22.5°
